STARLINK-1606, 46144

Orbit data source: Space-Track

STARLINK-1606, 46144 is a payload satellite owned by SpaceX/Seattle (US) in LEO that was launched on Tue, 18 Aug 2020 UTC via an FALCON 9 launch vehicle from the Air Force Eastern Test Range (AFETR). Payload-class satellites include a variety of spacecraft equipped with specific instruments for various scientific and technological missions. These include communications satellites like Starlink; space stations such as the ISS; scientific satellites like the Hubble; Earth observation satellites from companies like Planet Labs, Umbra, and HawkEye 360; GPS; miniature CubeSats for education and research; and military/defense satellites.

Not visible in the next 10 days
Identifier
46144, 2020-057AD
Orbit
LEO
Country
Flag of USUS
Related business
Manufacturer
SpaceX/Seattle
Mission
Partially operational Commercial Communications
Bus & Motor
STARLINK, Unknown motor
Mass
260 kg wet, ~248 kg dry
Launch date (UTC)
2020-08-18 (6 years ago)
Launch vehicle
FALCON 9
Launch site
Air Force Eastern Test Range (AFETR)
Object type
Payload
Rocket body
Debris
Shape & HBR
Box + 1 Pan, 10.1 m
Radar Cross Section
13.562 m², Large (>1 m²)

Expand to show TLE details & history
Last TLE update: 23 hours ago

TLE from 23 hours ago
0 STARLINK-1606
1 46144U 20057AD  26172.49876624  .00978318  56977-3  10023-2 0  9998
2 46144  53.0275  96.2261 0003663 209.6542 150.4284 16.10247003311569
Epoch: 2026-06-21T11:58Z
TLE epoch observation values (Epoch: 2026-06-21T11:58:13.403Z)
Latitude
-0.00004°
Longitude
6.97206°
Altitude
249.192 km
Speed
7.757 km/s
True Right ascension
06h 24m 54s
True Declination
0° 00' 00"
Sunlit
Object was in daylight at epoch
Visualization orbit readout
Latitude
Unknown
Longitude
Unknown
Altitude
Unknown
Speed
Unknown
Apparent Right ascension
Unknown
Apparent Declination
Unknown
Sunlit
N/A
Visualization observer readout
Local Sidereal Time
21:39:16
Azimuth
Unknown
Elevation
Unknown
Doppler factor
Unknown
Orbital elements
Apogee altitude
248.88 km
Perigee altitude
244.026 km
Semi-major axis
6,624.59 km
Eccentricity
0.00037
Inclination
53.0275°
RAAN
96.2261°
Arg. of periapsis
209.6542°
True anomaly
150.44911°
Mean anomaly
150.4284°
Eccentric anomaly
150.43875°
Mean motion
4.02536 °/min
Orbital period
89.43 mins
BSTAR
0.0010023
Loading maneuver chart data...
Computing Atmospheric mass density...

Documentation

Showing up to 5 results
|